カタログに戻る

COSMOS 2251 DEB

運用中LEO
NORAD 34011·DEBRIS·🇷🇺 Russia

打ち上げ Jun 16, 1993 から Plesetsk Cosmodrome

Loading…

次のパス (今後24時間)

TLE

最新Source: Space-Track

元期: Sep 13, 2026, 21:09 UTC

1 34011U 93036GW  26256.88152209  .00001519  00000-0  45755-3 0  9991
2 34011  74.0137 178.9936 0038847 201.1474 158.8079 14.42982470918833

AllMySatでCOSMOS 2251 DEBをリアルタイム追跡

Download on the App Store